[[{"header":{"parameterUnit":"m.s-1","parameterCategory":2,"la1":30.2991,"la2":30.254,"lo1":-89.0895,"lo2":-89.0444,"dy":0.0017,"dx":0.0017,"nx":28,"ny":28,"refTime":"2023-09-08T09:00:00:Z","depth":"0","parameterNumber":2,"parameterNumberName":"U-component_of_CURRENTS"},"data":[0,0,0,0,0,0,0,0,0,0,0,0,0,0,0,0,0,0,0,0,0,0,0,0,0,0,0,0,0,0,0,0,0,0,0,0,0,0,0,0,0,0,0,0,0,0,0,0,0,0,0,0,0,0,0,0,0,0,-0.308,-0.3081,0,-0.3113,-0.3114,-0.3114,-0.316,-0.3161,-0.3162,-0.3163,-0.3166,-0.3166,-0.3165,0,0,0,0,0,0,0,0,0,0,0,0,0,-0.3039,-0.304,-0.308,-0.3081,-0.3081,-0.3113,-0.3114,-0.3114,-0.316,-0.3161,-0.3162,-0.3163,-0.3167,-0.3166,-0.3165,0,0,0,0,0,0,0,0,0,0,0,0,0,-0.3062,-0.304,-0.308,-0.3109,-0.3112,-0.3113,-0.3114,-0.3114,-0.316,-0.3161,-0.3162,-0.3164,-0.3167,-0.3166,-0.3165,-0.313,0,0,-0.3161,-0.3161,0,0,0,0,0,0,0,0,-0.306,-0.3063,-0.3104,-0.3107,-0.311,-0.3135,-0.3101,-0.3118,-0.3159,-0.314,-0.3163,-0.3164,-0.3153,-0.3153,-0.3155,-0.313,-0.313,-0.3161,-0.316,-0.316,-0.316,0,0,0,0,0,0,0,-0.3059,-0.3062,-0.3092,-0.3105,-0.3109,-0.3115,-0.3119,-0.3104,-0.3137,-0.3142,-0.3146,-0.3151,-0.3155,-0.3156,-0.3155,-0.313,-0.3161,-0.316,-0.3159,-0.3159,-0.3034,-0.3032,0,0,0,0,0,0,-0.3057,-0.306,-0.3091,-0.3093,-0.309,-0.3114,-0.312,-0.3125,-0.3138,-0.3142,-0.315,-0.3153,-0.3157,-0.3156,-0.3155,-0.3077,-0.316,-0.3159,-0.3158,-0.3037,-0.3034,-0.3031,0,0,0,0,0,0,-0.3056,-0.3059,-0.3089,-0.3079,-0.3083,-0.3114,-0.3119,-0.3125,-0.3125,-0.3144,-0.3148,-0.3145,-0.3158,-0.3157,-0.3141,-0.308,-0.3158,-0.3157,-0.304,-0.3036,-0.3032,-0.2946,0,0,0,0,0,0,-0.3054,-0.3058,-0.3047,-0.3078,-0.3084,-0.3073,-0.3118,-0.3124,-0.3127,-0.3132,-0.3141,-0.3143,-0.3159,-0.3143,-0.314,-0.3079,-0.3156,-0.3043,-0.3038,-0.3033,-0.2952,-0.2939,-0.2929,0,0,0,0,0,-0.3053,-0.3019,-0.3046,-0.3049,-0.3071,-0.3072,-0.3073,-0.31,-0.3125,-0.3108,-0.3128,-0.3143,-0.3109,-0.3141,-0.3138,-0.3075,-0.3046,-0.304,-0.3034,-0.2957,-0.2942,-0.2929,0,0,0,0,0,0,-0.2973,-0.3022,-0.3052,-0.303,-0.3048,-0.308,-0.3055,-0.3089,-0.3092,-0.3098,-0.3125,-0.3127,-0.3078,-0.3091,-0.3126,-0.3022,-0.3072,-0.3065,-0.3014,-0.3,-0.2988,-0.2977,-0.3155,0,0,0,0,0,-0.2957,-0.2948,-0.3001,-0.2972,-0.2984,-0.3022,-0.3022,-0.3052,-0.3067,-0.307,-0.3076,-0.3073,-0.3048,-0.3042,-0.3021,-0.2979,-0.2985,-0.293,-0.2918,-0.2908,-0.2895,-0.2872,-0.2857,-0.3011,-0.3011,-0.3011,0,0,-0.2909,-0.2936,-0.2926,-0.2955,-0.2968,-0.2956,-0.3023,-0.302,-0.3001,-0.3067,-0.3022,-0.3029,-0.3027,-0.2974,-0.2952,-0.2982,-0.2862,-0.2901,-0.2893,-0.2884,-0.2864,-0.285,-0.2837,-0.3007,-0.3008,-0.3009,0,0,-0.2802,-0.2843,-0.2804,-0.2823,-0.2855,-0.2889,-0.2888,-0.2924,-0.2931,-0.2909,-0.2937,-0.2915,-0.2888,-0.2871,-0.286,-0.2768,-0.2797,-0.2758,-0.2696,-0.2673,-0.2661,-0.265,-0.2623,-0.261,-0.2758,-0.2758,-0.2758,0,-0.2729,-0.2729,-0.2785,-0.2759,-0.2776,-0.2854,-0.2832,-0.2832,-0.2853,-0.2861,-0.2877,-0.2835,-0.2826,-0.277,-0.2734,-0.2738,-0.2744,-0.2755,-0.266,-0.2649,-0.264,-0.2614,-0.2602,-0.2753,-0.2754,-0.2754,-0.2755,0,-0.2617,-0.2621,-0.2594,-0.2607,-0.2618,-0.2614,-0.2658,-0.266,-0.2693,-0.2712,-0.2677,-0.2674,-0.2664,-0.2635,-0.2655,-0.2577,-0.2608,-0.2646,-0.2701,-0.262,-0.2597,-0.2586,-0.2746,-0.2748,-0.2749,-0.2751,0,0,-0.2447,-0.2507,-0.2499,-0.2522,-0.2565,-0.257,-0.254,-0.2565,-0.2568,-0.2556,-0.2546,-0.2477,-0.2518,-0.2506,-0.2524,-0.2492,-0.2412,-0.2539,-0.2541,-0.2521,-0.2366,-0.2317,-0.2301,-0.2454,-0.2452,-0.245,-0.2373,0,-0.2349,-0.2318,-0.237,-0.2343,-0.2354,-0.2434,-0.241,-0.2437,-0.2468,-0.2469,-0.2467,-0.2449,-0.2457,-0.2465,-0.2426,-0.2437,-0.2382,-0.243,-0.244,-0.2439,-0.2414,-0.2285,-0.2206,-0.2124,-0.2362,-0.236,-0.2359,0,-0.2239,-0.2255,-0.2228,-0.2299,-0.2306,-0.2289,-0.2343,-0.2333,-0.2357,-0.2383,-0.238,-0.2405,-0.2356,-0.2378,-0.2316,-0.2361,-0.2336,-0.2328,-0.2327,-0.2303,-0.2367,-0.2246,-0.2095,-0.2078,-0.2342,-0.2343,-0.2344,0,-0.2157,-0.2167,-0.2167,-0.218,-0.2238,-0.224,-0.2267,-0.2303,-0.2315,-0.2335,-0.2352,-0.233,-0.2319,-0.2289,-0.2272,-0.2302,-0.2211,-0.2259,-0.2174,-0.2172,-0.2113,-0.2108,-0.1952,-0.217,-0.217,-0.217,-0.2171,0,-0.2075,-0.207,-0.2131,-0.2129,-0.2127,-0.2188,-0.2186,-0.2218,-0.2257,-0.226,-0.2302,-0.2291,-0.2297,-0.2268,-0.225,-0.2168,-0.2189,-0.2119,-0.213,-0.2077,-0.207,-0.2064,-0.2101,-0.2167,-0.2168,-0.2169,-0.2169,0,-0.1984,-0.2026,-0.2026,-0.2079,-0.209,-0.2085,-0.2137,-0.2146,-0.2194,-0.2201,-0.2205,-0.2243,-0.2209,-0.2203,-0.2155,-0.2123,-0.2026,-0.203,-0.1961,-0.1963,-0.1866,-0.1902,-0.1772,-0.172,-0.1912,-0.191,-0.1908,0,-0.1937,-0.193,-0.1968,-0.1972,-0.1991,-0.2004,-0.2022,-0.2092,-0.2111,-0.2161,-0.2155,-0.2144,-0.2111,-0.2031,-0.1987,-0.192,-0.193,-0.1802,-0.1814,-0.1797,-0.1848,-0.1881,-0.185,-0.1701,-0.1698,-0.1695,-0.1693,0,-0.1846,-0.1858,-0.1867,-0.1873,-0.1886,-0.1899,-0.1931,-0.1938,-0.2018,-0.2028,-0.2028,-0.2005,-0.1954,-0.1856,-0.1786,-0.174,-0.1759,-0.1744,-0.1739,-0.165,-0.1663,-0.1642,-0.1829,-0.167,-0.1672,-0.1674,-0.1675,-0.1676,-0.1768,-0.1752,-0.1765,-0.1758,-0.1779,-0.1777,-0.1745,-0.1799,-0.1798,-0.1795,-0.1862,-0.1812,-0.1773,-0.1661,-0.1608,-0.1507,-0.1572,-0.1468,-0.1507,-0.1538,-0.1485,-0.1606,-0.1462,-0.1463,-0.1464,-0.1465,-0.1466,0,-0.1664,-0.1659,-0.1655,-0.1641,-0.1615,-0.1661,-0.167,-0.1625,-0.1583,-0.1629,-0.161,-0.1597,-0.1489,-0.1464,-0.1378,-0.1304,-0.1278,-0.1275,-0.1302,-0.1277,-0.1377,-0.1364,-0.1176,-0.1176,-0.1176,-0.1176,-0.1176,-0.1176,-0.1608,-0.1564,-0.1563,-0.1475,-0.1465,-0.1386,-0.1361,-0.1323,-0.1326,-0.1283,-0.1302,-0.1363,-0.1356,-0.142,-0.1301,-0.1222,-0.1199,-0.1156,-0.1183,-0.1274,-0.1295,-0.1316,-0.1308,-0.1112,-0.1112,-0.1026,-0.1026,-0.1026]},{"header":{"parameterUnit":"m.s-1","parameterCategory":2,"la1":30.2991,"la2":30.254,"lo1":-89.0895,"lo2":-89.0444,"dy":0.0017,"dx":0.0017,"nx":28,"ny":28,"refTime":"2023-09-08T09:00:00:Z","depth":"0","parameterNumber":3,"parameterNumberName":"V-component_of_CURRENTS"},"data":[0,0,0,0,0,0,0,0,0,0,0,0,0,0,0,0,0,0,0,0,0,0,0,0,0,0,0,0,0,0,0,0,0,0,0,0,0,0,0,0,0,0,0,0,0,0,0,0,0,0,0,0,0,0,0,0,0,0,-0.0534,-0.0533,0,-0.0405,-0.0404,-0.0402,-0.0305,-0.0305,-0.0304,-0.0303,-0.0122,-0.0117,-0.0113,0,0,0,0,0,0,0,0,0,0,0,0,0,-0.0661,-0.066,-0.0534,-0.0532,-0.0531,-0.0406,-0.0404,-0.0402,-0.0305,-0.0305,-0.0304,-0.0303,-0.0123,-0.0118,-0.0113,0,0,0,0,0,0,0,0,0,0,0,0,0,-0.0575,-0.0659,-0.0534,-0.047,-0.0463,-0.0406,-0.0404,-0.0401,-0.0305,-0.0304,-0.0304,-0.0303,-0.0125,-0.0118,-0.0112,-0.0093,0,0,-0.0093,-0.009,0,0,0,0,0,0,0,0,-0.058,-0.057,-0.0481,-0.0474,-0.0466,-0.0372,-0.0382,-0.0296,-0.0306,-0.0363,-0.0303,-0.0302,-0.0203,-0.019,-0.0165,-0.0084,-0.0076,-0.0092,-0.0088,-0.0086,-0.0084,0,0,0,0,0,0,0,-0.0586,-0.0575,-0.048,-0.0479,-0.0471,-0.0436,-0.0422,-0.0365,-0.0287,-0.0358,-0.0351,-0.0341,-0.0198,-0.0172,-0.016,-0.0074,-0.0092,-0.0087,-0.0083,-0.008,0.003,0.0029,0,0,0,0,0,0,-0.0609,-0.058,-0.0484,-0.0477,-0.0525,-0.0435,-0.042,-0.0402,-0.0288,-0.0271,-0.0342,-0.0337,-0.0183,-0.0168,-0.0153,-0.0123,-0.0086,-0.008,-0.0076,0.0031,0.003,0.0029,0,0,0,0,0,0,-0.0613,-0.0602,-0.049,-0.0528,-0.0512,-0.0434,-0.0414,-0.04,-0.0371,-0.0278,-0.0259,-0.0328,-0.0182,-0.0162,-0.0116,-0.0115,-0.0077,-0.0071,0.0032,0.0031,0.0029,-0.0062,0,0,0,0,0,0,-0.0617,-0.0603,-0.0601,-0.053,-0.0511,-0.0458,-0.0415,-0.0398,-0.0367,-0.0359,-0.026,-0.0242,-0.0179,-0.0126,-0.011,-0.0106,-0.0066,0.0033,0.0031,0.003,-0.0058,-0.0066,-0.0073,0,0,0,0,0,-0.0621,-0.0618,-0.0601,-0.059,-0.0508,-0.0459,-0.0446,-0.0386,-0.0368,-0.0356,-0.0302,-0.0245,-0.0124,-0.0122,-0.0102,-0.0096,0.0034,0.0032,0.003,-0.0054,-0.0065,-0.0073,0,0,0,0,0,0,-0.0664,-0.0606,-0.0586,-0.0563,-0.0519,-0.0444,-0.0428,-0.0396,-0.0343,-0.0337,-0.0255,-0.0233,-0.0195,-0.014,-0.0139,-0.0072,-0.0036,-0.0034,-0.0107,-0.0116,-0.0123,-0.0125,-0.0061,0,0,0,0,0,-0.0678,-0.0661,-0.0602,-0.0583,-0.0567,-0.0504,-0.0478,-0.0441,-0.0386,-0.0361,-0.0298,-0.0236,-0.0189,-0.0149,-0.0099,-0.0058,-0.0007,-0.0043,-0.0051,-0.0058,-0.0048,0.0003,0.0001,0.0022,0.0022,0.0023,0,0,-0.069,-0.0656,-0.0645,-0.0593,-0.0553,-0.053,-0.0484,-0.0451,-0.043,-0.0351,-0.0309,-0.0264,-0.0189,-0.0149,-0.0125,-0.0098,-0.0039,-0.006,-0.0066,-0.0052,0.0001,-0.0001,-0.0002,0.0021,0.0021,0.0022,0,0,-0.0703,-0.0676,-0.0667,-0.0639,-0.0592,-0.0553,-0.0551,-0.0486,-0.0456,-0.0418,-0.0366,-0.0326,-0.0241,-0.0189,-0.0152,-0.0172,-0.0094,-0.0158,-0.0179,-0.0131,-0.0132,-0.0132,-0.0081,-0.0075,-0.0149,-0.0149,-0.0149,0,-0.0718,-0.07,-0.0657,-0.0643,-0.0628,-0.0571,-0.0563,-0.0524,-0.0454,-0.0436,-0.0416,-0.0316,-0.0257,-0.0205,-0.0212,-0.0187,-0.0147,-0.0151,-0.0141,-0.014,-0.0138,-0.0085,-0.0078,-0.0153,-0.0153,-0.0152,-0.0152,0,-0.0723,-0.0714,-0.0708,-0.0674,-0.0651,-0.0637,-0.0587,-0.0564,-0.0532,-0.0488,-0.0443,-0.0374,-0.0309,-0.0291,-0.0251,-0.0215,-0.0188,-0.0169,-0.0118,-0.0146,-0.0088,-0.0079,-0.016,-0.0158,-0.0157,-0.0156,0,0,-0.0744,-0.0718,-0.0718,-0.0718,-0.0673,-0.0654,-0.0632,-0.0592,-0.0575,-0.0517,-0.0487,-0.0419,-0.0383,-0.034,-0.029,-0.0242,-0.0205,-0.0203,-0.0198,-0.0153,-0.0095,-0.0059,-0.0045,-0.0187,-0.0186,-0.0185,-0.0062,0,-0.0762,-0.0764,-0.0739,-0.0741,-0.0741,-0.0697,-0.068,-0.0638,-0.0593,-0.055,-0.0483,-0.0437,-0.04,-0.0374,-0.0324,-0.0232,-0.0184,-0.024,-0.0072,-0.0067,-0.0032,-0.0035,-0.0006,0.0108,-0.0053,-0.0051,-0.005,0,-0.0778,-0.078,-0.0794,-0.0786,-0.0781,-0.0771,-0.0741,-0.0717,-0.0646,-0.061,-0.0552,-0.0494,-0.0415,-0.0388,-0.024,-0.0278,-0.0196,-0.0126,-0.0119,-0.0043,-0.0014,0.0114,0.0132,0.0259,-0.0035,-0.0036,-0.0037,0,-0.0825,-0.082,-0.084,-0.0836,-0.0812,-0.0811,-0.0795,-0.0739,-0.0716,-0.0646,-0.0614,-0.0519,-0.0459,-0.0354,-0.0212,-0.0224,-0.0045,-0.0042,0.0068,0.0072,0.0155,0.0164,0.032,0.0056,0.0055,0.0055,0.0055,0,-0.0861,-0.0874,-0.0867,-0.0878,-0.0896,-0.0862,-0.086,-0.0826,-0.0769,-0.0736,-0.0651,-0.0593,-0.0449,-0.0329,-0.0214,-0.0036,-0.0044,0.0074,0.0109,0.0122,0.0126,0.0288,0.0328,0.006,0.0059,0.0058,0.0057,0,-0.0904,-0.0901,-0.0922,-0.0918,-0.092,-0.0933,-0.091,-0.09,-0.0841,-0.0793,-0.0772,-0.0634,-0.0473,-0.032,-0.0126,-0.0028,0.0212,0.0188,0.0194,0.0227,0.0433,0.0465,0.0663,0.0736,0.033,0.0331,0.0333,0,-0.0923,-0.0941,-0.096,-0.0979,-0.0979,-0.099,-0.0993,-0.0945,-0.0923,-0.0809,-0.0783,-0.0623,-0.0493,-0.0194,0.0007,0.0223,0.0306,0.0367,0.0346,0.0463,0.0525,0.0546,0.0593,0.0422,0.0424,0.0425,0.0427,0,-0.0957,-0.0965,-0.0984,-0.1029,-0.1047,-0.106,-0.1055,-0.1045,-0.0974,-0.0906,-0.078,-0.0668,-0.0378,-0.0105,0.0166,0.0289,0.0461,0.0407,0.0536,0.062,0.0648,0.0729,0.0321,0.0441,0.044,0.0439,0.0438,0.0437,-0.0974,-0.1003,-0.1033,-0.107,-0.1096,-0.1112,-0.1107,-0.1075,-0.1022,-0.0896,-0.0786,-0.058,-0.0207,0.0191,0.0342,0.0649,0.0604,0.0734,0.0767,0.0782,0.0842,0.0463,0.0611,0.0611,0.061,0.061,0.0609,0,-0.0989,-0.1026,-0.107,-0.1109,-0.1136,-0.1141,-0.1129,-0.1091,-0.1011,-0.0879,-0.073,-0.0309,0.0066,0.0401,0.0828,0.0999,0.1033,0.1078,0.1122,0.1157,0.0844,0.0837,0.1031,0.1031,0.103,0.103,0.103,0.103,-0.0998,-0.1047,-0.1076,-0.1127,-0.1151,-0.1152,-0.1135,-0.1059,-0.0951,-0.0696,-0.0458,-0.0273,0.0204,0.0897,0.1291,0.1322,0.1467,0.1456,0.153,0.1316,0.1286,0.1258,0.1264,0.1544,0.1544,0.1839,0.1842,0.1844]}],[{"header":{"parameterUnit":"m.s-1","parameterCategory":2,"la1":30.2991,"la2":30.254,"lo1":-89.0895,"lo2":-89.0444,"dy":0.0017,"dx":0.0017,"nx":28,"ny":28,"refTime":"2023-09-08T09:00:00:Z","depth":"2","parameterNumber":2,"parameterNumberName":"U-component_of_CURRENTS"},"data":[0,0,0,0,0,0,0,0,0,0,0,0,0,0,0,0,0,0,0,0,0,0,0,0,0,0,0,0,0,0,0,0,0,0,0,0,0,0,0,0,0,0,0,0,0,0,0,0,0,0,0,0,0,0,0,0,0,0,-0.2324,-0.2324,0,-0.2308,-0.2307,-0.2307,-0.2299,-0.2299,-0.2299,-0.2299,-0.2364,-0.2365,-0.2366,0,0,0,0,0,0,0,0,0,0,0,0,0,-0.2279,-0.228,-0.2324,-0.2324,-0.2324,-0.2308,-0.2307,-0.2307,-0.2299,-0.2299,-0.2299,-0.23,-0.2363,-0.2365,-0.2367,0,0,0,0,0,0,0,0,0,0,0,0,0,-0.2282,-0.228,-0.2324,-0.232,-0.232,-0.2308,-0.2307,-0.2306,-0.2299,-0.2299,-0.2299,-0.23,-0.2363,-0.2365,-0.2367,-0.2372,0,0,-0.2374,-0.2374,0,0,0,0,0,0,0,0,-0.2281,-0.2283,-0.2321,-0.232,-0.232,-0.2308,-0.2315,-0.2334,-0.2298,-0.2304,-0.2299,-0.23,-0.2354,-0.2357,-0.2348,-0.2375,-0.2378,-0.2374,-0.2375,-0.2376,-0.2377,0,0,0,0,0,0,0,-0.2281,-0.2283,-0.2314,-0.2321,-0.232,-0.2296,-0.2297,-0.2317,-0.2326,-0.2303,-0.2303,-0.2306,-0.2354,-0.2346,-0.235,-0.2379,-0.2374,-0.2376,-0.2377,-0.2378,-0.2339,-0.2337,0,0,0,0,0,0,-0.2293,-0.2284,-0.2315,-0.2314,-0.2305,-0.2297,-0.2298,-0.2309,-0.2324,-0.2327,-0.2306,-0.2306,-0.2342,-0.2347,-0.2352,-0.2357,-0.2376,-0.2378,-0.2379,-0.2341,-0.2338,-0.2336,0,0,0,0,0,0,-0.2292,-0.2296,-0.2316,-0.23,-0.2301,-0.2298,-0.231,-0.2309,-0.2309,-0.2326,-0.2329,-0.2309,-0.2342,-0.2349,-0.2354,-0.236,-0.2379,-0.2381,-0.2344,-0.234,-0.2337,-0.2369,0,0,0,0,0,0,-0.2291,-0.2296,-0.2306,-0.2301,-0.2303,-0.2309,-0.231,-0.2308,-0.2311,-0.2311,-0.233,-0.2335,-0.2343,-0.235,-0.2356,-0.2363,-0.2383,-0.2347,-0.2342,-0.2338,-0.2371,-0.2367,-0.2363,0,0,0,0,0,-0.2289,-0.229,-0.2307,-0.2311,-0.2318,-0.2309,-0.2307,-0.2303,-0.2311,-0.2306,-0.2307,-0.2335,-0.2325,-0.2351,-0.2358,-0.2366,-0.2349,-0.2344,-0.2339,-0.2372,-0.2368,-0.2364,0,0,0,0,0,0,-0.2268,-0.229,-0.2308,-0.2315,-0.2319,-0.2309,-0.2299,-0.2308,-0.2304,-0.2308,-0.2324,-0.2328,-0.233,-0.2328,-0.2356,-0.2329,-0.2335,-0.2331,-0.2358,-0.2354,-0.235,-0.234,-0.2385,0,0,0,0,0,-0.2274,-0.2283,-0.23,-0.2304,-0.2306,-0.2309,-0.2307,-0.2311,-0.2308,-0.2307,-0.2322,-0.2318,-0.231,-0.2319,-0.2311,-0.2317,-0.23,-0.2312,-0.2309,-0.2306,-0.2295,-0.2271,-0.2266,-0.2319,-0.2319,-0.2319,0,0,-0.2263,-0.2279,-0.2281,-0.23,-0.2299,-0.2294,-0.2307,-0.2304,-0.2302,-0.2318,-0.2316,-0.2318,-0.2303,-0.2296,-0.2296,-0.2304,-0.2278,-0.23,-0.2299,-0.2288,-0.2265,-0.226,-0.2256,-0.2315,-0.2316,-0.2316,0,0,-0.2229,-0.2264,-0.2254,-0.2263,-0.2276,-0.2283,-0.2288,-0.2294,-0.2298,-0.23,-0.2297,-0.2294,-0.2298,-0.2283,-0.2275,-0.2243,-0.2258,-0.2241,-0.2232,-0.2209,-0.2206,-0.2203,-0.2175,-0.2169,-0.2244,-0.2244,-0.2244,0,-0.2213,-0.2219,-0.2246,-0.2241,-0.2247,-0.228,-0.2271,-0.2275,-0.2284,-0.2287,-0.2299,-0.2277,-0.2284,-0.2259,-0.2242,-0.2243,-0.2227,-0.2266,-0.221,-0.2207,-0.2203,-0.2175,-0.2168,-0.2245,-0.2245,-0.2244,-0.2244,0,-0.2167,-0.2184,-0.2175,-0.2191,-0.2201,-0.2198,-0.2223,-0.2236,-0.2258,-0.2265,-0.2259,-0.2256,-0.2241,-0.2241,-0.2239,-0.221,-0.2206,-0.2214,-0.2238,-0.2201,-0.2172,-0.2165,-0.2246,-0.2246,-0.2245,-0.2245,0,0,-0.2092,-0.2136,-0.2132,-0.2148,-0.2181,-0.2182,-0.2192,-0.2204,-0.2211,-0.2225,-0.2221,-0.2204,-0.2217,-0.2203,-0.2206,-0.219,-0.2161,-0.2194,-0.2193,-0.2194,-0.2107,-0.2051,-0.2038,-0.2172,-0.2171,-0.217,-0.2099,0,-0.2044,-0.2041,-0.2074,-0.2075,-0.208,-0.2129,-0.2137,-0.216,-0.2184,-0.2193,-0.2196,-0.219,-0.2198,-0.22,-0.2184,-0.2172,-0.2142,-0.2179,-0.2117,-0.2114,-0.2093,-0.2027,-0.1901,-0.1822,-0.2092,-0.2091,-0.209,0,-0.1978,-0.1996,-0.1991,-0.2045,-0.2048,-0.2054,-0.2089,-0.2102,-0.213,-0.215,-0.2154,-0.2166,-0.2149,-0.2161,-0.2113,-0.214,-0.2113,-0.21,-0.2097,-0.2027,-0.2043,-0.1897,-0.1799,-0.2077,-0.2078,-0.2079,-0.208,0,-0.1908,-0.1936,-0.1939,-0.1952,-0.2009,-0.2016,-0.2042,-0.208,-0.2094,-0.212,-0.2132,-0.2126,-0.2119,-0.2092,-0.2074,-0.2093,-0.2019,-0.2043,-0.1956,-0.1953,-0.1819,-0.1805,-0.198,-0.1981,-0.1981,-0.1981,-0.1981,0,-0.1849,-0.1849,-0.1909,-0.191,-0.1914,-0.1971,-0.1976,-0.2009,-0.2049,-0.2055,-0.2099,-0.2091,-0.2101,-0.2074,-0.2056,-0.1977,-0.1999,-0.1928,-0.1921,-0.1823,-0.1811,-0.2014,-0.2019,-0.1978,-0.1979,-0.1979,-0.198,0,-0.1769,-0.181,-0.1815,-0.1868,-0.1882,-0.1881,-0.1934,-0.1946,-0.1994,-0.2004,-0.2012,-0.205,-0.2017,-0.2013,-0.1968,-0.1936,-0.1883,-0.1845,-0.1729,-0.1708,-0.1837,-0.1844,-0.1735,-0.1732,-0.173,-0.1728,-0.1726,0,-0.1729,-0.1724,-0.1766,-0.1772,-0.1793,-0.1811,-0.183,-0.1899,-0.1916,-0.1966,-0.1962,-0.1955,-0.1918,-0.1842,-0.1797,-0.1731,-0.1797,-0.1572,-0.1574,-0.1802,-0.1806,-0.1817,-0.1827,-0.1408,-0.1404,-0.1401,-0.1398,0,-0.1649,-0.1662,-0.1674,-0.1684,-0.17,-0.1714,-0.1747,-0.1753,-0.183,-0.1838,-0.1834,-0.1809,-0.1758,-0.1634,-0.1566,-0.1516,-0.158,-0.15,-0.1744,-0.15,-0.1491,-0.1497,-0.1518,-0.1368,-0.1371,-0.1373,-0.1375,-0.1376,-0.1581,-0.1568,-0.1583,-0.1581,-0.1604,-0.16,-0.157,-0.1618,-0.1613,-0.1603,-0.1664,-0.159,-0.1575,-0.1403,-0.1318,-0.1264,-0.1376,-0.1317,-0.1329,-0.1343,-0.1328,-0.1316,-0.1157,-0.1158,-0.116,-0.1161,-0.1162,0,-0.1488,-0.1484,-0.1484,-0.1473,-0.145,-0.1494,-0.15,-0.1452,-0.1404,-0.143,-0.1403,-0.1262,-0.1168,-0.1159,-0.1029,-0.0993,-0.0992,-0.0945,-0.0954,-0.0984,-0.1011,-0.098,-0.0715,-0.0714,-0.0712,-0.0711,0,0,-0.1438,-0.1399,-0.1396,-0.1315,-0.1309,-0.1233,-0.1207,-0.116,-0.1148,-0.1073,-0.1047,-0.1129,-0.1142,-0.0949,-0.0887,-0.0781,-0.0874,-0.0735,-0.1096,-0.1137,-0.1163,-0.1226,-0.1212,0,0,0,0,0]},{"header":{"parameterUnit":"m.s-1","parameterCategory":2,"la1":30.2991,"la2":30.254,"lo1":-89.0895,"lo2":-89.0444,"dy":0.0017,"dx":0.0017,"nx":28,"ny":28,"refTime":"2023-09-08T09:00:00:Z","depth":"2","parameterNumber":3,"parameterNumberName":"V-component_of_CURRENTS"},"data":[0,0,0,0,0,0,0,0,0,0,0,0,0,0,0,0,0,0,0,0,0,0,0,0,0,0,0,0,0,0,0,0,0,0,0,0,0,0,0,0,0,0,0,0,0,0,0,0,0,0,0,0,0,0,0,0,0,0,-0.0356,-0.0355,0,-0.0259,-0.0258,-0.0256,-0.0195,-0.0195,-0.0195,-0.0195,-0.0055,-0.0051,-0.0048,0,0,0,0,0,0,0,0,0,0,0,0,0,-0.0435,-0.0434,-0.0356,-0.0355,-0.0354,-0.0259,-0.0258,-0.0256,-0.0195,-0.0195,-0.0195,-0.0195,-0.0056,-0.0052,-0.0047,0,0,0,0,0,0,0,0,0,0,0,0,0,-0.0375,-0.0434,-0.0356,-0.0314,-0.0309,-0.0259,-0.0258,-0.0256,-0.0195,-0.0195,-0.0195,-0.0194,-0.0057,-0.0052,-0.0047,-0.002,0,0,-0.0031,-0.0028,0,0,0,0,0,0,0,0,-0.0378,-0.0372,-0.0321,-0.0316,-0.0311,-0.024,-0.0234,-0.0175,-0.0195,-0.0237,-0.0195,-0.0194,-0.0114,-0.0104,-0.0085,-0.0014,-0.0008,-0.003,-0.0027,-0.0025,-0.0023,0,0,0,0,0,0,0,-0.0382,-0.0375,-0.0316,-0.032,-0.0314,-0.0281,-0.0272,-0.0223,-0.0176,-0.0233,-0.0229,-0.0221,-0.0111,-0.009,-0.0081,-0.0005,-0.003,-0.0026,-0.0022,-0.002,0.0092,0.0092,0,0,0,0,0,0,-0.0401,-0.0379,-0.0319,-0.0313,-0.0346,-0.028,-0.027,-0.0262,-0.0177,-0.0165,-0.0221,-0.0218,-0.0099,-0.0087,-0.0076,-0.0044,-0.0025,-0.002,-0.0017,0.0092,0.0092,0.0092,0,0,0,0,0,0,-0.0403,-0.0396,-0.0323,-0.0345,-0.0334,-0.0279,-0.027,-0.026,-0.024,-0.0169,-0.0156,-0.0212,-0.0099,-0.0083,-0.0044,-0.0038,-0.0017,-0.0013,0.0092,0.0092,0.0092,0.0022,0,0,0,0,0,0,-0.0406,-0.0398,-0.0401,-0.0347,-0.0333,-0.0298,-0.0271,-0.0259,-0.0236,-0.0232,-0.0157,-0.0143,-0.0097,-0.0052,-0.0038,-0.0031,-0.0008,0.0093,0.0092,0.0092,0.0025,0.002,0.0015,0,0,0,0,0,-0.0409,-0.0412,-0.0402,-0.0395,-0.0339,-0.0298,-0.0288,-0.0247,-0.0237,-0.0228,-0.0187,-0.0146,-0.0044,-0.0048,-0.0032,-0.0022,0.0093,0.0092,0.0092,0.0027,0.0021,0.0015,0,0,0,0,0,0,-0.0446,-0.0405,-0.0392,-0.0383,-0.0348,-0.0289,-0.0279,-0.0254,-0.0214,-0.0212,-0.0149,-0.0132,-0.0096,-0.0053,-0.0059,0.0008,0.0032,0.0034,-0.0023,-0.0028,-0.0033,-0.0041,-0.0004,0,0,0,0,0,-0.0458,-0.0452,-0.0405,-0.0399,-0.0384,-0.0335,-0.0316,-0.0289,-0.0246,-0.0228,-0.0178,-0.0127,-0.0084,-0.0054,-0.0009,0.0029,0.0068,0.0045,0.0041,0.0036,0.004,0.0089,0.0089,0.009,0.009,0.009,0,0,-0.0473,-0.0449,-0.0446,-0.0407,-0.0377,-0.0357,-0.0322,-0.0296,-0.028,-0.0219,-0.0185,-0.0144,-0.0081,-0.0043,-0.0021,-0.0005,0.0055,0.0036,0.0031,0.0038,0.0089,0.0089,0.0088,0.009,0.009,0.009,0,0,-0.0493,-0.0476,-0.0475,-0.0451,-0.0412,-0.038,-0.0377,-0.0323,-0.0299,-0.0266,-0.0222,-0.0182,-0.0111,-0.0065,-0.0033,-0.0036,0.0022,-0.0021,-0.0042,0.0005,0.0006,0.0006,0.0048,0.0053,-0.0017,-0.0017,-0.0017,0,-0.0515,-0.0504,-0.0469,-0.0459,-0.0444,-0.0395,-0.0388,-0.0355,-0.0297,-0.0278,-0.0266,-0.017,-0.012,-0.0068,-0.007,-0.0045,-0.0013,-0.0027,-0.0002,0.0,0.0002,0.0045,0.0051,-0.002,-0.002,-0.002,-0.0019,0,-0.0527,-0.0522,-0.0519,-0.0492,-0.0471,-0.0458,-0.0412,-0.0389,-0.036,-0.0322,-0.0274,-0.0211,-0.0152,-0.0131,-0.01,-0.0058,-0.0039,-0.0021,0.001,-0.0002,0.0044,0.0052,-0.0025,-0.0024,-0.0023,-0.0022,0,0,-0.0565,-0.0535,-0.0536,-0.0533,-0.0491,-0.0474,-0.0452,-0.0411,-0.0394,-0.0341,-0.0311,-0.0243,-0.0208,-0.017,-0.0122,-0.0079,-0.0041,-0.0048,-0.0044,-0.0013,0.0058,0.0083,0.0095,-0.0021,-0.002,-0.0019,0.0081,0,-0.0587,-0.0588,-0.0561,-0.056,-0.0556,-0.0512,-0.0495,-0.0454,-0.0412,-0.037,-0.0303,-0.0259,-0.0222,-0.0198,-0.0149,-0.0066,-0.0022,-0.007,0.0071,0.0076,0.0095,0.0105,0.009,0.018,0.0089,0.0091,0.0092,0,-0.0605,-0.0605,-0.0614,-0.0597,-0.0591,-0.0584,-0.0549,-0.0526,-0.0457,-0.0422,-0.0365,-0.0309,-0.0233,-0.0208,-0.0072,-0.0106,-0.0032,0.003,0.0036,0.0092,0.0116,0.0181,0.0199,0.0106,0.0105,0.0104,0.0103,0,-0.065,-0.0641,-0.0654,-0.0649,-0.0621,-0.0619,-0.0601,-0.0546,-0.0524,-0.0456,-0.043,-0.0334,-0.0282,-0.0181,-0.0053,-0.0062,0.0096,0.0104,0.0197,0.02,0.0234,0.0238,0.0196,0.0196,0.0196,0.0195,0.0195,0,-0.0682,-0.0691,-0.0681,-0.0689,-0.0704,-0.0667,-0.0666,-0.0631,-0.0578,-0.0548,-0.0464,-0.0413,-0.0274,-0.0166,-0.0058,0.01,0.0097,0.0201,0.0232,0.0208,0.0208,0.0182,0.0179,0.0199,0.0198,0.0197,0.0197,0,-0.0723,-0.0717,-0.0732,-0.0724,-0.0726,-0.0738,-0.0717,-0.0708,-0.0653,-0.0612,-0.0593,-0.0463,-0.0319,-0.0175,0.0005,0.0098,0.024,0.0293,0.0254,0.0278,0.0312,0.0304,0.0409,0.0411,0.0413,0.0414,0.0415,0,-0.074,-0.0756,-0.077,-0.0789,-0.0789,-0.0799,-0.0803,-0.0756,-0.0736,-0.0635,-0.0612,-0.047,-0.0351,-0.008,0.0105,0.0302,0.0293,0.0396,0.038,0.0317,0.0336,0.0326,0.0316,0.0397,0.0398,0.0398,0.0399,0,-0.0772,-0.0782,-0.0797,-0.0841,-0.086,-0.0871,-0.0868,-0.086,-0.0793,-0.0735,-0.0623,-0.0521,-0.0262,-0.0031,0.0213,0.0322,0.0361,0.0417,0.0379,0.0338,0.0312,0.0328,0.0318,0.0405,0.0405,0.0404,0.0404,0.0404,-0.0792,-0.082,-0.0848,-0.0885,-0.0911,-0.0927,-0.0923,-0.0894,-0.0848,-0.0736,-0.0635,-0.0452,-0.024,0.0123,0.0296,0.0447,0.0441,0.0482,0.0478,0.0473,0.0447,0.0424,0.0533,0.0533,0.0533,0.0534,0.0534,0,-0.0812,-0.0846,-0.0888,-0.0927,-0.0954,-0.0959,-0.0949,-0.0914,-0.0844,-0.0726,-0.0591,-0.0337,-0.0078,0.0129,0.0386,0.0535,0.051,0.0547,0.0493,0.0486,0.0481,0.0452,0.0542,0.0543,0.0543,0.0543,0,0,-0.0824,-0.087,-0.0896,-0.0949,-0.0974,-0.0979,-0.0965,-0.0895,-0.0797,-0.0658,-0.0516,-0.0326,-0.0065,0.012,0.0307,0.0436,0.0415,0.0438,0.0418,0.0326,0.0318,0.0434,0.0382,0,0,0,0,0]}],[{"header":{"parameterUnit":"m.s-1","parameterCategory":2,"la1":30.2991,"la2":30.254,"lo1":-89.0895,"lo2":-89.0444,"dy":0.0017,"dx":0.0017,"nx":28,"ny":28,"refTime":"2023-09-08T09:00:00:Z","depth":"4","parameterNumber":2,"parameterNumberName":"U-component_of_CURRENTS"},"data":[0,0,0,0,0,0,0,0,0,0,0,0,0,0,0,0,0,0,0,0,0,0,0,0,0,0,0,0,0,0,0,0,0,0,0,0,0,0,0,0,0,0,0,0,0,0,0,0,0,0,0,0,0,0,0,0,0,0,-0.137,-0.1371,0,-0.1405,-0.1405,-0.1405,-0.1421,-0.1421,-0.1422,-0.1422,-0.1461,-0.1462,-0.1463,0,0,0,0,0,0,0,0,0,0,0,0,0,-0.1327,-0.1327,-0.137,-0.1371,-0.1372,-0.1405,-0.1405,-0.1405,-0.1421,-0.1421,-0.1422,-0.1422,-0.1461,-0.1462,-0.1463,0,0,0,0,0,0,0,0,0,0,0,0,0,-0.1348,-0.1327,-0.137,-0.1387,-0.1389,-0.1405,-0.1405,-0.1405,-0.1421,-0.1421,-0.1422,-0.1422,-0.1461,-0.1462,-0.1463,-0.146,0,0,-0.1466,-0.1467,0,0,0,0,0,0,0,0,-0.1347,-0.1349,-0.1383,-0.1386,-0.1388,-0.1412,-0.1404,-0.1425,-0.1421,-0.1404,-0.1422,-0.1422,-0.1448,-0.145,-0.145,-0.1462,-0.1464,-0.1467,-0.1467,-0.1468,-0.1468,0,0,0,0,0,0,0,-0.1346,-0.1348,-0.138,-0.1384,-0.1387,-0.1396,-0.1399,-0.1408,-0.142,-0.1406,-0.1408,-0.1418,-0.1448,-0.1448,-0.1451,-0.1464,-0.1467,-0.1468,-0.1468,-0.1469,-0.1539,-0.154,0,0,0,0,0,0,-0.1348,-0.1347,-0.1379,-0.1382,-0.1373,-0.1396,-0.1399,-0.1401,-0.142,-0.1424,-0.1418,-0.1419,-0.1446,-0.1449,-0.1452,-0.1523,-0.1468,-0.1469,-0.1469,-0.1538,-0.1539,-0.1541,0,0,0,0,0,0,-0.1347,-0.135,-0.1378,-0.1369,-0.1373,-0.1397,-0.1398,-0.1401,-0.1429,-0.1429,-0.1433,-0.1445,-0.1447,-0.1451,-0.1477,-0.1522,-0.1469,-0.147,-0.1537,-0.1538,-0.154,-0.1618,0,0,0,0,0,0,-0.1345,-0.1349,-0.1362,-0.1368,-0.1374,-0.1398,-0.1398,-0.1402,-0.1434,-0.1437,-0.1454,-0.1456,-0.1448,-0.1475,-0.1478,-0.1523,-0.1471,-0.1535,-0.1537,-0.154,-0.1614,-0.1623,-0.163,0,0,0,0,0,-0.1343,-0.136,-0.1362,-0.1367,-0.1387,-0.1399,-0.1402,-0.1418,-0.1436,-0.1445,-0.1459,-0.1457,-0.1492,-0.1477,-0.148,-0.1526,-0.1534,-0.1537,-0.1539,-0.1611,-0.1621,-0.1629,0,0,0,0,0,0,-0.1359,-0.1364,-0.1366,-0.1387,-0.1397,-0.1403,-0.143,-0.1436,-0.1455,-0.147,-0.1468,-0.1471,-0.1513,-0.1503,-0.1487,-0.1551,-0.1515,-0.1518,-0.1568,-0.1578,-0.1585,-0.157,-0.1472,0,0,0,0,0,-0.1365,-0.1376,-0.138,-0.1402,-0.1413,-0.1426,-0.144,-0.1446,-0.1461,-0.1472,-0.1484,-0.1501,-0.1522,-0.1537,-0.1546,-0.1579,-0.1545,-0.161,-0.1618,-0.1625,-0.1614,-0.1595,-0.1599,-0.155,-0.155,-0.155,0,0,-0.1382,-0.1386,-0.1397,-0.1406,-0.1423,-0.1443,-0.1436,-0.1466,-0.1491,-0.1473,-0.1523,-0.153,-0.1536,-0.1573,-0.1592,-0.1575,-0.1625,-0.1628,-0.1634,-0.1619,-0.1598,-0.1603,-0.1607,-0.1551,-0.1551,-0.1551,0,0,-0.141,-0.1425,-0.1438,-0.145,-0.1472,-0.1478,-0.1493,-0.151,-0.1529,-0.1567,-0.1566,-0.1592,-0.1629,-0.1632,-0.1643,-0.1697,-0.1666,-0.1714,-0.1745,-0.1728,-0.1731,-0.1734,-0.1708,-0.1708,-0.1719,-0.1719,-0.1719,0,-0.1434,-0.1438,-0.1447,-0.1465,-0.1482,-0.15,-0.1519,-0.1546,-0.1569,-0.1579,-0.1596,-0.164,-0.1657,-0.1686,-0.1713,-0.1717,-0.1692,-0.1713,-0.1737,-0.1739,-0.174,-0.1713,-0.1712,-0.1723,-0.1723,-0.1722,-0.1722,0,-0.1451,-0.1474,-0.1492,-0.1514,-0.1535,-0.1557,-0.1587,-0.1615,-0.165,-0.1661,-0.1704,-0.1719,-0.1733,-0.1762,-0.1763,-0.1787,-0.1762,-0.1749,-0.1712,-0.175,-0.1719,-0.1716,-0.1729,-0.1728,-0.1726,-0.1725,0,0,-0.1438,-0.1491,-0.1496,-0.1513,-0.1557,-0.1569,-0.1628,-0.1653,-0.168,-0.1724,-0.1748,-0.1806,-0.18,-0.1809,-0.1813,-0.1814,-0.1824,-0.1794,-0.1791,-0.1766,-0.1777,-0.1669,-0.1654,-0.1815,-0.1815,-0.1815,-0.1756,0,-0.1441,-0.1476,-0.1502,-0.1547,-0.1566,-0.1606,-0.1651,-0.1686,-0.1721,-0.1752,-0.178,-0.181,-0.1824,-0.1836,-0.1842,-0.1825,-0.1818,-0.184,-0.1746,-0.1742,-0.1639,-0.1648,-0.1814,-0.1753,-0.1752,-0.1752,-0.1751,0,-0.142,-0.1448,-0.1489,-0.1545,-0.1559,-0.1596,-0.1645,-0.1685,-0.1737,-0.1765,-0.1795,-0.181,-0.1833,-0.1838,-0.182,-0.1833,-0.1809,-0.1795,-0.1792,-0.1654,-0.1627,-0.1704,-0.1745,-0.1746,-0.1746,-0.1747,-0.1747,0,-0.1363,-0.1427,-0.1457,-0.1479,-0.1555,-0.1585,-0.1625,-0.1683,-0.171,-0.1764,-0.1782,-0.1807,-0.1818,-0.1803,-0.1793,-0.1804,-0.1755,-0.176,-0.1634,-0.1626,-0.1709,-0.1706,-0.1729,-0.1729,-0.1729,-0.1729,-0.1729,0,-0.1322,-0.1349,-0.1439,-0.1455,-0.1491,-0.1557,-0.1594,-0.1641,-0.1698,-0.1714,-0.1775,-0.1776,-0.181,-0.1793,-0.1779,-0.1688,-0.1738,-0.1624,-0.1598,-0.1745,-0.1747,-0.1707,-0.1705,-0.1727,-0.1728,-0.1728,-0.1728,0,-0.125,-0.1311,-0.135,-0.1438,-0.1466,-0.1491,-0.1573,-0.1596,-0.1662,-0.1684,-0.1701,-0.1749,-0.1721,-0.1731,-0.1699,-0.1648,-0.159,-0.1544,-0.1694,-0.1679,-0.1476,-0.148,-0.1387,-0.1382,-0.1379,-0.1375,-0.1373,0,-0.1214,-0.123,-0.1323,-0.1349,-0.1393,-0.1446,-0.1481,-0.1565,-0.1585,-0.1645,-0.1639,-0.1647,-0.1661,-0.1519,-0.1552,-0.1491,-0.1478,-0.1438,-0.1464,-0.1454,-0.1439,-0.1448,-0.1456,-0.1367,-0.1366,-0.1365,-0.1364,0,-0.1143,-0.1189,-0.1225,-0.1275,-0.1321,-0.1357,-0.141,-0.141,-0.1491,-0.1569,-0.1523,-0.1496,-0.1456,-0.1429,-0.1388,-0.1353,-0.1462,-0.1398,-0.1406,-0.1431,-0.1429,-0.1419,-0.1432,-0.1351,-0.1352,-0.1354,-0.1354,0,-0.1093,-0.11,-0.1153,-0.1183,-0.1239,-0.1242,-0.1284,-0.1297,-0.1321,-0.1398,-0.1375,-0.1388,-0.1434,-0.1355,-0.132,-0.1273,-0.1257,-0.122,-0.1237,-0.1252,-0.1237,-0.1217,-0.1034,0,0,0,0,0,-0.1034,-0.1029,-0.1056,-0.1079,-0.1129,-0.1152,-0.1225,-0.1271,-0.1348,-0.1279,-0.1322,-0.128,-0.1221,-0.1232,-0.1152,-0.126,-0.1266,-0.1162,-0.1235,-0.1278,-0.1293,-0.1288,0,0,0,0,0,0,-0.0994,-0.1015,-0.1018,-0.098,-0.0977,-0.1011,-0.105,-0.1109,-0.1075,-0.116,-0.1131,-0.1196,-0.1156,-0.1237,-0.112,-0.1123,-0.1141,-0.1183,-0.1179,-0.1269,-0.1283,-0.1295,-0.1296,0,0,0,0,0]},{"header":{"parameterUnit":"m.s-1","parameterCategory":2,"la1":30.2991,"la2":30.254,"lo1":-89.0895,"lo2":-89.0444,"dy":0.0017,"dx":0.0017,"nx":28,"ny":28,"refTime":"2023-09-08T09:00:00:Z","depth":"4","parameterNumber":3,"parameterNumberName":"V-component_of_CURRENTS"},"data":[0,0,0,0,0,0,0,0,0,0,0,0,0,0,0,0,0,0,0,0,0,0,0,0,0,0,0,0,0,0,0,0,0,0,0,0,0,0,0,0,0,0,0,0,0,0,0,0,0,0,0,0,0,0,0,0,0,0,-0.0252,-0.0251,0,-0.021,-0.0209,-0.0209,-0.0185,-0.0185,-0.0185,-0.0185,-0.0115,-0.0113,-0.0111,0,0,0,0,0,0,0,0,0,0,0,0,0,-0.0275,-0.0275,-0.0252,-0.0251,-0.0251,-0.021,-0.0209,-0.0209,-0.0185,-0.0185,-0.0185,-0.0185,-0.0115,-0.0113,-0.0111,0,0,0,0,0,0,0,0,0,0,0,0,0,-0.0251,-0.0275,-0.0252,-0.0235,-0.0233,-0.021,-0.0209,-0.0208,-0.0185,-0.0185,-0.0185,-0.0185,-0.0116,-0.0113,-0.0111,-0.0092,0,0,-0.0102,-0.0101,0,0,0,0,0,0,0,0,-0.0253,-0.025,-0.0238,-0.0236,-0.0234,-0.0204,-0.0192,-0.0169,-0.0185,-0.0202,-0.0185,-0.0185,-0.0143,-0.0138,-0.0128,-0.0089,-0.0086,-0.0102,-0.01,-0.0099,-0.0098,0,0,0,0,0,0,0,-0.0254,-0.0252,-0.0234,-0.0237,-0.0235,-0.0217,-0.0214,-0.0187,-0.0171,-0.0201,-0.0199,-0.0196,-0.0141,-0.0131,-0.0127,-0.0085,-0.0102,-0.0099,-0.0097,-0.0096,-0.001,-0.0009,0,0,0,0,0,0,-0.0264,-0.0253,-0.0235,-0.0233,-0.0245,-0.0217,-0.0213,-0.0212,-0.0172,-0.0167,-0.0196,-0.0195,-0.0136,-0.013,-0.0124,-0.0091,-0.0099,-0.0096,-0.0094,-0.0011,-0.001,-0.0009,0,0,0,0,0,0,-0.0264,-0.0262,-0.0237,-0.0243,-0.0239,-0.0217,-0.0216,-0.0212,-0.0205,-0.0169,-0.0163,-0.0194,-0.0136,-0.0128,-0.0104,-0.0089,-0.0095,-0.0092,-0.0011,-0.001,-0.001,-0.0031,0,0,0,0,0,0,-0.0265,-0.0263,-0.0268,-0.0244,-0.0239,-0.0226,-0.0216,-0.0211,-0.0203,-0.0201,-0.0165,-0.0158,-0.0135,-0.0109,-0.0102,-0.0085,-0.009,-0.0012,-0.0011,-0.001,-0.0031,-0.0031,-0.0031,0,0,0,0,0,-0.0266,-0.0271,-0.0269,-0.0267,-0.0246,-0.0226,-0.0221,-0.0205,-0.0203,-0.0199,-0.0178,-0.016,-0.0096,-0.0107,-0.0098,-0.008,-0.0013,-0.0011,-0.001,-0.0031,-0.0031,-0.0031,0,0,0,0,0,0,-0.0284,-0.0268,-0.0265,-0.0266,-0.025,-0.0222,-0.022,-0.0209,-0.0189,-0.019,-0.0158,-0.0149,-0.012,-0.0099,-0.0111,-0.0051,-0.0049,-0.0046,-0.0068,-0.0067,-0.0067,-0.008,-0.0088,0,0,0,0,0,-0.0291,-0.0293,-0.0271,-0.0274,-0.0266,-0.0245,-0.0237,-0.0226,-0.0204,-0.0196,-0.0169,-0.0139,-0.0107,-0.0089,-0.006,-0.0031,-0.0011,-0.0012,-0.0012,-0.0012,-0.0015,0.0028,0.0031,-0.0005,-0.0005,-0.0005,0,0,-0.0302,-0.0292,-0.0295,-0.0278,-0.0265,-0.0254,-0.024,-0.023,-0.0219,-0.0191,-0.0169,-0.014,-0.01,-0.0067,-0.0051,-0.0048,0.001,-0.001,-0.0011,-0.0014,0.0029,0.0033,0.0036,-0.0004,-0.0004,-0.0004,0,0,-0.0317,-0.0312,-0.0316,-0.0303,-0.0286,-0.0268,-0.0267,-0.024,-0.0226,-0.0204,-0.0176,-0.0141,-0.0099,-0.0061,-0.0038,-0.002,0.0006,-0.0008,-0.0014,0.0028,0.0031,0.0034,0.0061,0.0067,-0.0005,-0.0005,-0.0005,0,-0.0333,-0.033,-0.0313,-0.0308,-0.0301,-0.0276,-0.0273,-0.0251,-0.022,-0.0205,-0.0201,-0.0128,-0.0093,-0.0044,-0.0036,-0.0018,-0.0,-0.002,0.0027,0.003,0.0034,0.0061,0.0068,-0.0006,-0.0006,-0.0006,-0.0006,0,-0.0342,-0.0343,-0.0342,-0.0329,-0.0317,-0.0311,-0.0281,-0.0265,-0.0247,-0.0221,-0.0178,-0.0131,-0.0088,-0.0063,-0.0044,0.0003,0.0006,0.0018,0.0023,0.0036,0.0064,0.0071,-0.0007,-0.0007,-0.0007,-0.0006,0,0,-0.0373,-0.0355,-0.0357,-0.0356,-0.0329,-0.0321,-0.03,-0.0269,-0.0258,-0.0216,-0.0193,-0.0126,-0.0103,-0.0075,-0.0038,0.0002,0.0046,0.0016,0.0018,0.0036,0.0126,0.0116,0.0123,0.0063,0.0064,0.0065,0.0135,0,-0.0388,-0.0392,-0.0373,-0.0374,-0.0371,-0.0342,-0.0326,-0.0295,-0.0264,-0.0233,-0.0173,-0.0139,-0.0106,-0.0089,-0.004,0.0022,0.0064,0.0025,0.0117,0.012,0.0103,0.0131,0.0069,0.014,0.0142,0.0143,0.0144,0,-0.04,-0.0401,-0.0411,-0.0399,-0.0396,-0.0394,-0.0368,-0.0349,-0.0294,-0.0269,-0.022,-0.0177,-0.0108,-0.0088,0.0027,-0.0003,0.0058,0.0108,0.0112,0.0113,0.0123,0.0127,0.0157,0.0156,0.0155,0.0154,0.0153,0,-0.0429,-0.0426,-0.0439,-0.0436,-0.0418,-0.042,-0.0409,-0.0367,-0.0351,-0.0297,-0.0281,-0.0195,-0.0156,-0.0068,0.0035,0.003,0.0156,0.0165,0.0216,0.0216,0.0211,0.0208,0.0249,0.0249,0.0248,0.0248,0.0248,0,-0.0445,-0.0455,-0.0461,-0.0468,-0.0486,-0.046,-0.0466,-0.0439,-0.0401,-0.0381,-0.031,-0.0272,-0.015,-0.0063,0.0028,0.0141,0.0155,0.0218,0.0237,0.02,0.0195,0.0216,0.0212,0.0251,0.025,0.025,0.0249,0,-0.0467,-0.0471,-0.0489,-0.0494,-0.0502,-0.0518,-0.0515,-0.0511,-0.0473,-0.0446,-0.0432,-0.0326,-0.0211,-0.0089,0.0061,0.0128,0.0239,0.0277,0.022,0.0234,0.027,0.0264,0.0337,0.0337,0.0338,0.0338,0.0338,0,-0.0474,-0.0489,-0.0522,-0.0546,-0.0555,-0.0575,-0.0586,-0.0555,-0.0542,-0.0472,-0.0455,-0.0347,-0.0266,-0.0057,0.0066,0.0235,0.026,0.0308,0.0299,0.0271,0.0282,0.0275,0.0268,0.0338,0.0339,0.0339,0.0339,0,-0.0488,-0.051,-0.0529,-0.0584,-0.0613,-0.0633,-0.0642,-0.0635,-0.0588,-0.0561,-0.0456,-0.0343,-0.0212,-0.0052,0.0078,0.02,0.027,0.0311,0.0311,0.0303,0.0273,0.0283,0.0276,0.034,0.034,0.0339,0.0339,0,-0.0502,-0.0528,-0.0567,-0.0608,-0.0652,-0.0671,-0.0672,-0.0637,-0.0613,-0.0526,-0.0492,-0.0343,-0.025,-0.0069,0.0052,0.0167,0.0196,0.0226,0.0231,0.0232,0.0178,0.0122,0.0164,0,0,0,0,0,-0.0507,-0.054,-0.0585,-0.0629,-0.0672,-0.069,-0.0696,-0.0683,-0.0642,-0.057,-0.0524,-0.0395,-0.0196,-0.0104,0.0012,0.0041,0.0198,0.0177,0.023,0.0345,0.0344,0.0297,0,0,0,0,0,0,-0.0514,-0.0561,-0.0584,-0.0635,-0.0666,-0.0702,-0.0704,-0.0677,-0.0621,-0.0566,-0.0452,-0.0382,-0.0185,-0.0262,0.001,0.0044,0.0091,0.0275,0.0277,0.0346,0.0345,0.0344,0.0296,0,0,0,0,0]}]]